User: anonymous   Login
Location: Makakahi
(40.6833°S, 175.6000°E)
Time: 19:28:23
(UTC+00:00)
Language:

DMSP F15 (USA 147) - Orbit

View from above orbital plane
View from above orbital plane
View from above satellite
View from above satellite

Ground track
Ground track

The orbit data is extracted from the following two-line orbital elements,

1 25991U 99067A   24340.58369500  .00000445  00000-0  24327-3 0  9990
2 25991  99.0563 359.2840 0010426 145.9542 326.2188 14.17227735291511
Epoch (UTC): 05 December 2024 14:00:31
Eccentricity: 0.0010426
inclination: 99.0563°
perigee height: 827 km
apogee height: 842 km
right ascension of ascending node: 359.2840°
argument of perigee: 145.9542°
revolutions per day: 14.17227735
mean anomaly at epoch: 326.2188°
orbit number at epoch: 29151

The dashed part of the orbit path shows where the satellite is in the earth's shadow,  

DLR